Date String (YYYY-MM-DD hh:mm:ss) UTC,Instrument flags,Ambient pressure (hPa),Sample flow (lpm),Bypass flow (lpm),Sample temperature (°C),Ambient temperature (°C),ASC tube jacket temperature (°C),LED temperature (°C),Box temperature (°C),Sample RH (%),Span deviation,Mass concentration (μg/m³),Mass concentration (μg/m³),Mass concentration (μg/m³)
DateTimeUTC,F1_M11,P_M11,Q1_M11,Q2_M11,T1_M11,T2_M11,T3_M11,T4_M11,T5_M11,U1_M11,ZSPAN_M11,X2_M11,X0_M11,X1_M11
2021-12-27 17:00:00,,0815.4,4.99,0.00,22.7,22.1,00.0,31.6,24.5,10.5,0000.0,0003.15,0011.84,0001.54
2021-12-27 17:01:00,,0815.4,5.01,0.00,22.8,22.1,00.0,31.6,24.5,10.7,0000.0,0003.17,0011.53,0001.53
2021-12-27 17:02:00,,0815.4,4.99,0.00,22.8,22.1,00.0,31.6,24.5,10.7,0000.0,0003.18,0011.77,0001.55
2021-12-27 17:03:00,,0815.3,5.00,0.00,22.8,22.1,00.0,31.6,24.6,10.7,0000.0,0003.18,0011.84,0001.57
2021-12-27 17:04:00,,0815.4,5.01,0.00,22.8,22.1,00.0,31.6,24.6,10.8,0000.0,0003.20,0010.69,0001.59
2021-12-27 17:05:00,,0815.3,4.99,0.00,22.8,22.1,00.0,31.6,24.6,10.8,0000.0,0003.26,0010.09,0001.60
2021-12-27 17:06:00,,0815.3,5.01,0.00,22.8,22.1,00.0,31.7,24.6,10.7,0000.0,0003.23,0009.77,0001.61
2021-12-27 17:07:00,,0815.2,4.99,0.00,22.8,22.1,00.0,31.7,24.6,10.7,0000.0,0003.22,0009.80,0001.62
2021-12-27 17:08:00,,0815.5,5.02,0.00,22.8,22.2,00.0,31.7,24.6,10.7,0000.0,0003.22,0010.25,0001.62
2021-12-27 17:09:00,,0815.2,4.99,0.00,22.8,22.2,00.0,31.7,24.6,10.6,0000.0,0003.22,0011.21,0001.63
2021-12-27 17:10:00,,0815.4,5.02,0.00,22.8,22.2,00.0,31.7,24.6,10.6,0000.0,0003.22,0011.75,0001.64
2021-12-27 17:11:00,,0815.2,5.00,0.00,22.8,22.1,00.0,31.7,24.6,10.6,0000.0,0003.25,0011.67,0001.65
2021-12-27 17:12:00,,0815.2,4.98,0.00,22.8,22.1,00.0,31.7,24.6,10.6,0000.0,0003.27,0011.50,0001.69
2021-12-27 17:13:00,,0815.3,5.01,0.00,22.8,22.1,00.0,31.7,24.6,10.6,0000.0,0003.26,0011.35,0001.67
2021-12-27 17:14:00,,0815.3,4.99,0.00,22.8,22.1,00.0,31.7,24.6,10.6,0000.0,0003.27,0010.94,0001.65
2021-12-27 17:15:00,,0815.2,5.01,0.00,22.9,22.2,00.0,31.7,24.6,10.7,0000.0,0003.27,0010.27,0001.64
2021-12-27 17:16:00,,0815.4,5.00,0.00,22.9,22.2,00.0,31.7,24.6,10.6,0000.0,0003.22,0010.43,0001.65
2021-12-27 17:17:00,,0815.3,4.99,0.00,22.9,22.2,00.0,31.7,24.6,10.5,0000.0,0003.19,0010.82,0001.63
2021-12-27 17:18:00,,0815.2,5.02,0.00,22.9,22.2,00.0,31.7,24.6,10.5,0000.0,0003.18,0011.07,0001.62
2021-12-27 17:19:00,,0815.2,4.99,0.00,22.9,22.2,00.0,31.7,24.6,10.5,0000.0,0003.21,0010.56,0001.62
2021-12-27 17:20:00,,0815.2,5.00,0.00,22.9,22.2,00.0,31.8,24.6,10.4,0000.0,0003.17,0009.42,0001.61
2021-12-27 17:21:00,,0815.1,5.00,0.00,22.9,22.2,00.0,31.8,24.6,10.3,0000.0,0003.12,0009.04,0001.58
2021-12-27 17:22:00,,0815.1,5.00,0.00,22.9,22.2,00.0,31.8,24.6,10.3,0000.0,0003.10,0009.15,0001.56
2021-12-27 17:23:00,,0815.0,5.00,0.00,22.9,22.2,00.0,31.8,24.6,10.3,0000.0,0002.99,0009.17,0001.53
2021-12-27 17:24:00,,0814.9,5.01,0.00,22.9,22.2,00.0,31.8,24.6,10.4,0000.0,0002.92,0009.15,0001.50
2021-12-27 17:25:00,,0815.0,4.99,0.00,22.9,22.1,00.0,31.8,24.6,10.4,0000.0,0002.87,0010.15,0001.50
2021-12-27 17:26:00,,0814.9,5.00,0.00,22.9,22.1,00.0,31.8,24.6,10.4,0000.0,0002.81,0011.81,0001.48
2021-12-27 17:27:00,,0814.9,4.99,0.00,22.9,22.1,00.0,31.8,24.6,10.4,0000.0,0002.79,0011.83,0001.47
2021-12-27 17:28:00,,0814.9,5.02,0.00,22.9,22.1,00.0,31.8,24.6,10.3,0000.0,0002.77,0011.34,0001.48
2021-12-27 17:29:00,,0814.9,4.99,0.00,22.9,22.1,00.0,31.8,24.6,10.3,0000.0,0002.71,0011.12,0001.47
2021-12-27 17:30:00,,0814.9,5.00,0.00,22.9,22.1,00.0,31.8,24.6,10.3,0000.0,0002.59,0011.01,0001.47
2021-12-27 17:31:00,,0814.9,5.00,0.00,22.9,22.1,00.0,31.8,24.6,10.3,0000.0,0002.59,0011.35,0001.46
2021-12-27 17:32:00,,0814.9,4.99,0.00,22.8,22.1,00.0,31.8,24.6,10.3,0000.0,0002.60,0011.01,0001.47
2021-12-27 17:33:00,,0814.9,5.01,0.00,22.8,22.1,00.0,31.8,24.6,10.3,0000.0,0002.57,0010.62,0001.47
2021-12-27 17:34:00,,0814.9,4.99,0.00,22.9,22.1,00.0,31.8,24.6,10.2,0000.0,0002.55,0010.45,0001.47
2021-12-27 17:35:00,,0814.8,5.01,0.00,22.9,22.1,00.0,31.8,24.6,10.2,0000.0,0002.55,0010.59,0001.47
2021-12-27 17:36:00,,0814.9,4.99,0.00,22.9,22.1,00.0,31.8,24.6,10.3,0000.0,0002.50,0010.11,0001.47
2021-12-27 17:37:00,,0814.9,5.01,0.00,22.9,22.1,00.0,31.8,24.6,10.3,0000.0,0002.47,0008.12,0001.46
2021-12-27 17:38:00,,0814.9,4.99,0.00,22.9,22.1,00.0,31.8,24.6,10.2,0000.0,0002.48,0008.08,0001.44
2021-12-27 17:39:00,,0814.8,5.00,0.00,22.9,22.1,00.0,31.8,24.6,10.2,0000.0,0002.43,0008.04,0001.41
2021-12-27 17:40:00,,0814.9,5.00,0.00,22.9,22.1,00.0,31.8,24.6,10.1,0000.0,0002.42,0007.83,0001.39
2021-12-27 17:41:00,,0814.9,5.00,0.00,22.9,22.1,00.0,31.8,24.6,10.2,0000.0,0002.42,0008.17,0001.37
2021-12-27 17:42:00,,0814.8,4.99,0.00,22.9,22.1,00.0,31.8,24.6,10.1,0000.0,0002.39,0008.25,0001.37
2021-12-27 17:43:00,,0814.6,5.02,0.00,22.9,22.1,00.0,31.8,24.6,10.2,0000.0,0002.35,0008.52,0001.36
2021-12-27 17:44:00,,0814.8,4.99,0.00,22.9,22.1,00.0,31.8,24.6,10.2,0000.0,0002.34,0008.62,0001.34
2021-12-27 17:45:00,,0815.0,4.99,0.00,22.9,22.1,00.0,31.8,24.6,10.2,0000.0,0002.34,0009.38,0001.33
2021-12-27 17:46:00,,0815.2,5.02,0.00,22.9,22.1,00.0,31.8,24.6,10.1,0000.0,0002.29,0009.94,0001.30
2021-12-27 17:47:00,,0815.1,4.99,0.00,22.9,22.1,00.0,31.8,24.6,10.0,0000.0,0002.23,0009.58,0001.27
2021-12-27 17:48:00,,0815.1,5.01,0.00,22.9,22.1,00.0,31.8,24.6,10.0,0000.0,0002.19,0009.58,0001.26
2021-12-27 17:49:00,,0814.9,5.00,0.00,22.9,22.1,00.0,31.8,24.6,09.8,0000.0,0002.11,0008.95,0001.24
2021-12-27 17:50:00,,0814.6,4.98,0.00,22.9,22.1,00.0,31.8,24.6,09.8,0000.0,0002.12,0009.05,0001.22
2021-12-27 17:51:00,,0814.5,5.01,0.00,22.9,22.1,00.0,31.8,24.6,09.6,0000.0,0002.09,0009.00,0001.18
2021-12-27 17:52:00,,0814.5,4.99,0.00,22.9,22.1,00.0,31.8,24.7,09.6,0000.0,0002.07,0008.69,0001.13
2021-12-27 17:53:00,,0814.4,5.00,0.00,22.9,22.1,00.0,31.8,24.6,09.6,0000.0,0002.03,0008.50,0001.08
2021-12-27 17:54:00,,0814.5,5.01,0.00,22.9,22.2,00.0,31.8,24.6,09.7,0000.0,0002.00,0008.75,0001.05
2021-12-27 17:55:00,,0814.4,5.01,0.00,22.9,22.2,00.0,31.8,24.7,09.6,0000.0,0001.95,0008.61,0001.02
2021-12-27 17:56:00,,0814.3,4.99,0.00,22.9,22.2,00.0,31.8,24.7,09.7,0000.0,0001.85,0007.68,0000.99
2021-12-27 17:57:00,,0814.3,5.00,0.00,22.9,22.2,00.0,31.8,24.7,09.5,0000.0,0001.81,0007.04,0000.97
2021-12-27 17:58:00,,0814.3,4.99,0.00,22.9,22.2,00.0,31.8,24.7,09.5,0000.0,0001.82,0007.17,0000.95
2021-12-27 17:59:00,,0814.3,5.01,0.00,22.9,22.2,00.0,31.8,24.7,09.6,0000.0,0001.79,0007.12,0000.93
